Regional Weather Roundup
Issued by NWS Albany, NY

Home | Current Version | Previous Version | Graphics & Text | Print | Product List | Glossary Off
Versions: 1 2 3 4 5 6 7 8 9 10 11 12 13 14 15 16 17 18 19 20 21 22 23 24 25 26 27 28 29 30 31 32 33 34 35 36 37 38 39 40 41 42 43 44 45 46 47 48 49 50

000
ASUS41 KALY 280410
RWRALY

NEW YORK STATE HOURLY WEATHER ROUNDUP
NATIONAL WEATHER SERVICE ALBANY NY
1200 AM EDT THU MAY 28 2015

NOTE: "FAIR" INDICATES FEW OR NO CLOUDS BELOW 12,000 FEET WITH NO
SIGNIFICANT WEATHER AND/OR NO OBSTRUCTIONS TO VISIBILITY.

NYZ032-033-038>043-046>054-057>066-NYZ062>081-280500-
EAST


CITY           SKY/WX    TMP DP  RH WIND       PRES   REMARKS
ALBANY         MOCLDY    69  65  86 S7        30.08R
GLENS FALLS    CLOUDY    68  65  90 S7        30.06S
POUGHKEEPSIE   PTCLDY    65  63  93 CALM      30.11S FOG
NEWBURGH       CLEAR     68  68 100 CALM      30.13F
MONTGOMERY     FOG       63  62  97 CALM      30.12S VSB 1/4
WHITE PLAINS   PTCLDY    64  62  93 CALM      30.14F FOG
ISLIP          CLOUDY    65  60  84 SW12      30.16S
NEW YORK CITY  MOCLDY    68  61  78 S7        30.13F
CENTRAL PARK   PTCLDY    71  67  87 SW3       30.16F
$$

NYZ005>009-017-018-044>046-055-056-280500-
CENTRAL


CITY           SKY/WX    TMP DP  RH WIND       PRES   REMARKS
FULTON         LGT RAIN  67  62  84 SW8       30.04R
SYRACUSE       CLOUDY    72  61  68 W13       30.06R
ROME           CLOUDY    71  63  75 NW8       30.06R
ELMIRA         PTCLDY    70  59  68 S7        30.10R
BINGHAMTON     CLEAR     67  62  84 S7        30.13R
MONTICELLO     CLOUDY    64  64 100 CALM      30.17S VSB 1/4
$$

NYZ026>034-041>043-280500-
NORTH


CITY           SKY/WX    TMP DP  RH WIND       PRES   REMARKS
WATERTOWN      CLOUDY    66  55  67 SW8       30.02R
FORT DRUM      NOT AVBL
MASSENA        PTCLDY    73  59  61 SW16      29.94F
SARANAC LAKE   CLEAR     62  59  90 W5        30.03S
PLATTSBURGH    CLEAR     63  63 100 SE3       29.97R
$$

NYZ001>004-010>016-019>021-280500-
WEST


CITY           SKY/WX    TMP DP  RH WIND       PRES   REMARKS
NIAGARA FALLS  MOCLDY    63  57  81 SW16G26   30.02S
BUFFALO        MOCLDY    66  59  78 SW10      30.03S
DUNKIRK        LGT RAIN  65  60  84 SW7       30.06S
JAMESTOWN      CLOUDY    61  55  82 S10       30.12S
WELLSVILLE     PTCLDY    61  57  87 SW6       30.15F
ROCHESTER      CLOUDY    66  61  84 SW10      30.03S
PENN YAN       CLOUDY    69  58  67 S10       30.08F
$$

             KEY
       WCI = WIND CHILL INDEX
       VSB = VISIBILITY
       HX  = HEAT INDEX
$$



USA.gov is the U.S. government's official web portal to all federal, state and local government web resources and services.